Weather History for KBIS - February, 2013

Change the Weather History Date:

Sunday, February 3, 2013

  Actual Average Record
Temperature  
Mean Temperature 17 °F 15 °F  
Max Temperature 22 °F 25 °F 56 °F (2005)
Min Temperature 11 °F 4 °F -38 °F (1905)
Degree Days  
Heating Degree Days 48 50  
Month to date heating degree days 153 151  
Since 1 July heating degree days 5259 5269  
Cooling Degree Days 0 0  
Month to date cooling degree days 0 0  
Year to date cooling degree days 0 0  
Moisture  
Dew Point 12 °F    
Average Humidity 83    
Maximum Humidity 92    
Minimum Humidity 73    
Precipitation  
Precipitation 0.00 in 0.01 in 0.31 in (1971)
Month to date precipitation 0.06 0.04  
Year to date precipitation 0.31 0.47  
Snow  
Snow 0.00 in 0.30 in 4.90 in (1971)
Month to date snowfall 0.8 0.8  
Since 1 July snowfall 25.9 30.2  
Snow Depth 4.00 in    
Sea Level Pressure  
Sea Level Pressure 30.00 in    
Wind  
Wind Speed 8 mph (East)    
Max Wind Speed 16 mph    
Max Gust Speed 19 mph    
Visibility 10 miles    
Events      
T = Trace of Precipitation, MM = Missing Value Source: NWS Daily Summary

Daily Weather History Graph

Daily Weather History Graph

Search for Another Location

Airport or City:

Trip Planner

Search our weather history database for the weather conditions in past years. The results will help you decide how hot, cold, wet, or windy it might be!

Date:

Astronomy

Feb. 03, 2013 Rise Set
Actual Time 8:04 AM CST 5:50 PM CST
Civil Twilight 7:32 AM CST 6:22 PM CST
Nautical Twilight 6:56 AM CST 6:58 PM CST
Astronomical Twilight 6:20 AM CST 7:33 PM CST
Moon 1:35 AM CST (2/3) 11:26 AM CST (2/3)
Length of Visible Light 10h 50m
Length of Day
9h 45m
Waning Gibbous, 48% of the Moon is Illuminated
Feb 3
Waning Gibbous
Feb 10
New
Feb 17
First Quarter
Feb 25
Full
Mar 4
Last Quarter

Hourly Weather History & Observations

Time (CST) Temp. Windchill Dew Point Humidity Pressure Visibility Wind Dir Wind Speed Gust Speed Precip Events Conditions
12:52 AM 12.9 °F 6.9 °F 9.0 °F 84% 30.18 in 10.0 mi SSW 3.5 mph - N/A   Overcast
1:52 AM 15.1 °F 6.4 °F 10.9 °F 84% 30.15 in 10.0 mi SW 5.8 mph - N/A   Overcast
2:52 AM 15.8 °F - 10.4 °F 79% 30.06 in 10.0 mi Calm Calm - N/A   Overcast
3:52 AM 18.0 °F 12.7 °F 14.0 °F 84% 30.12 in 10.0 mi SSW 3.5 mph - N/A   Overcast
4:52 AM 18.0 °F 9.8 °F 14.0 °F 84% 30.08 in 10.0 mi ENE 5.8 mph - N/A   Overcast
5:52 AM 18.0 °F 9.8 °F 14.0 °F 84% 30.07 in 10.0 mi East 5.8 mph - N/A   Overcast
6:49 AM 17.6 °F 8.2 °F 12.2 °F 79% 29.97 in 10.0 mi NE 6.9 mph - N/A   Overcast
6:52 AM 17.1 °F 7.6 °F 12.9 °F 84% 30.06 in 10.0 mi NE 6.9 mph - N/A   Overcast
7:52 AM 15.1 °F 7.7 °F 12.0 °F 88% 30.05 in 10.0 mi East 4.6 mph - N/A   Overcast
8:10 AM 14.0 °F 2.9 °F 10.0 °F 84% 29.94 in 10.0 mi ENE 8.1 mph - N/A   Mostly Cloudy
8:52 AM 12.9 °F 5.2 °F 10.9 °F 92% 30.04 in 10.0 mi East 4.6 mph - N/A   Mostly Cloudy
9:52 AM 17.1 °F 7.6 °F 12.0 °F 81% 30.02 in 10.0 mi ESE 6.9 mph - N/A   Clear
10:52 AM 18.0 °F 6.9 °F 12.0 °F 78% 30.01 in 10.0 mi East 9.2 mph - N/A   Clear
11:52 AM 19.0 °F 6.8 °F 12.9 °F 77% 30.00 in 10.0 mi East 11.5 mph - N/A   Scattered Clouds
12:38 PM 19.0 °F 6.8 °F 12.9 °F 77% 29.88 in 10.0 mi East 11.5 mph - N/A   Overcast
12:52 PM 19.9 °F 8.6 °F 14.0 °F 78% 29.96 in 10.0 mi East 10.4 mph - N/A   Overcast
1:52 PM 21.0 °F 10.6 °F 15.1 °F 78% 29.94 in 10.0 mi ESE 9.2 mph - N/A   Overcast
2:24 PM 21.0 °F 9.9 °F 15.1 °F 78% 29.84 in 10.0 mi East 10.4 mph - N/A   Scattered Clouds
2:52 PM 21.9 °F 11.7 °F 15.1 °F 75% 29.93 in 10.0 mi East 9.2 mph - N/A   Partly Cloudy
3:40 PM 21.0 °F 9.3 °F 15.1 °F 78% 29.84 in 10.0 mi East 11.5 mph - N/A   Overcast
3:52 PM 21.0 °F 9.3 °F 15.1 °F 78% 29.93 in 10.0 mi East 11.5 mph - N/A   Overcast
4:52 PM 19.0 °F 5.0 °F 14.0 °F 81% 29.94 in 10.0 mi East 15.0 mph - N/A   Overcast
5:16 PM 18.0 °F 4.8 °F 14.0 °F 84% 29.86 in 10.0 mi East 12.7 mph - N/A   Overcast
5:52 PM 17.1 °F 3.0 °F 12.0 °F 81% 29.96 in 10.0 mi East 13.8 mph - N/A   Overcast
6:52 PM 16.0 °F 3.6 °F 10.9 °F 81% 30.00 in 10.0 mi East 10.4 mph - N/A   Overcast
7:04 PM 16.0 °F 3.6 °F 10.0 °F 77% 29.91 in 10.0 mi ENE 10.4 mph - N/A   Overcast
7:52 PM 15.1 °F 4.2 °F 10.0 °F 80% 30.01 in 10.0 mi East 8.1 mph - N/A   Overcast
8:52 PM 14.0 °F 3.9 °F 10.0 °F 84% 30.04 in 10.0 mi NE 6.9 mph - N/A   Overcast
9:50 PM 12.2 °F -1.0 °F 8.6 °F 85% 29.96 in 10.0 mi NE 10.4 mph - N/A   Overcast
9:52 PM 12.9 °F -0.9 °F 8.1 °F 81% 30.07 in 10.0 mi NE 11.5 mph - N/A   Overcast
10:12 PM 12.0 °F 0.5 °F 7.0 °F 80% 29.96 in 10.0 mi ENE 8.1 mph - N/A   Overcast
10:52 PM 10.9 °F -0.8 °F 7.0 °F 84% 30.06 in 10.0 mi East 8.1 mph - N/A   Overcast
11:52 PM 10.9 °F 4.7 °F 6.1 °F 81% 30.06 in 10.0 mi East 3.5 mph - N/A   Overcast